Spencer, IA

10:50 AM CDT on May 23, 2018 (GMT -0500)
Spencer Municipal

Weather History for KSPW - February, 2013

Change the Weather History Date:

Sunday, February 17, 2013

  Actual Average Record
Temperature  
Mean Temperature 32 °F -  
Max Temperature 44 °F 32 °F 65 °F (1981)
Min Temperature 19 °F 12 °F -22 °F (1979)
Degree Days  
Heating Degree Days 34    
Moisture  
Dew Point 23 °F    
Average Humidity 73    
Maximum Humidity 86    
Minimum Humidity 55    
Precipitation  
Precipitation 0.00 in - - ()
Sea Level Pressure  
Sea Level Pressure 29.85 in    
Wind  
Wind Speed 12 mph (SSE)    
Max Wind Speed 24 mph    
Max Gust Speed 31 mph    
Visibility 10 miles    
Events      
Averages and records for this station are not official NWS values.
T = Trace of Precipitation, MM = Missing Value Source: NWS Daily Summary

Daily Weather History Graph

Daily Weather History Graph

Search for Another Location

Airport or City:

Astronomy

Feb. 17, 2013 Rise Set
Actual Time 7:15 AM CST 5:54 PM CST
Civil Twilight 6:46 AM CST 6:23 PM CST
Nautical Twilight 6:13 AM CST 6:57 PM CST
Astronomical Twilight 5:40 AM CST 7:30 PM CST
Moon 10:56 AM CST (2/17) 1:03 AM CST (2/17)
Length of Visible Light 11h 37m
Length of Day
10h 39m
Waxing Crescent, 49% of the Moon is Illuminated
Feb 17
Waxing Crescent
Feb 17
First Quarter
Feb 25
Full
Mar 4
Last Quarter
Mar 11
New

Hourly Weather History & Observations

Time (CST) Temp. Windchill Dew Point Humidity Pressure Visibility Wind Dir Wind Speed Gust Speed Precip Events Conditions
12:53 AM 21.9 °F 12.5 °F 18.0 °F 85% 30.07 in 10.0 mi SE 8.1 mph - N/A   Clear
1:53 AM 21.9 °F 13.4 °F 17.1 °F 82% 30.06 in 10.0 mi SSE 6.9 mph - N/A   Partly Cloudy
2:39 AM 21.2 °F 13.6 °F 17.6 °F 86% 30.00 in 10.0 mi SSE 5.8 mph - N/A   Mostly Cloudy
2:53 AM 23.0 °F 14.7 °F 19.0 °F 85% 30.05 in 10.0 mi SSE 6.9 mph - N/A   Overcast
3:53 AM 21.9 °F 13.4 °F 18.0 °F 85% 30.03 in 10.0 mi SSE 6.9 mph - N/A   Mostly Cloudy
4:02 AM 21.2 °F 12.6 °F 17.6 °F 86% 29.98 in 10.0 mi South 6.9 mph - N/A   Partly Cloudy
4:53 AM 19.9 °F 11.1 °F 16.0 °F 85% 30.02 in 10.0 mi SE 6.9 mph - N/A   Clear
5:53 AM 21.0 °F 10.6 °F 16.0 °F 81% 30.01 in 10.0 mi SSE 9.2 mph - N/A   Clear
6:53 AM 19.9 °F 9.3 °F 16.0 °F 85% 29.99 in 10.0 mi SE 9.2 mph - N/A   Clear
7:53 AM 21.0 °F 9.3 °F 16.0 °F 81% 29.98 in 10.0 mi SSE 11.5 mph - N/A   Clear
8:53 AM 25.0 °F 13.6 °F 19.0 °F 78% 29.96 in 10.0 mi SSE 12.7 mph - N/A   Clear
9:53 AM 28.9 °F 17.3 °F 21.9 °F 75% 29.94 in 10.0 mi SSE 16.1 mph - N/A   Clear
10:53 AM 32.0 °F 20.8 °F 23.0 °F 69% 29.91 in 10.0 mi SSE 17.3 mph - N/A   Clear
11:53 AM 37.0 °F 27.0 °F 25.0 °F 62% 29.87 in 10.0 mi South 18.4 mph - N/A   Clear
12:53 PM 39.9 °F 30.0 °F 27.0 °F 60% 29.82 in 10.0 mi SSE 21.9 mph - N/A   Clear
1:53 PM 43.0 °F 34.0 °F 28.0 °F 56% 29.77 in 10.0 mi SSE 21.9 mph 28.8 mph N/A   Clear
2:53 PM 44.1 °F 35.2 °F 28.9 °F 55% 29.73 in 10.0 mi SSE 23.0 mph 27.6 mph N/A   Clear
3:53 PM 44.1 °F 35.0 °F 28.9 °F 55% 29.70 in 10.0 mi SSE 24.2 mph 31.1 mph N/A   Clear
4:53 PM 42.1 °F 33.1 °F 28.9 °F 60% 29.66 in 10.0 mi SE 20.7 mph 28.8 mph N/A   Clear
5:53 PM 39.9 °F 30.8 °F 28.9 °F 65% 29.66 in 10.0 mi SSE 18.4 mph 23.0 mph N/A   Clear
6:53 PM 39.0 °F 29.3 °F 28.0 °F 65% 29.65 in 10.0 mi SSE 19.6 mph - N/A   Clear
7:53 PM 39.0 °F 29.0 °F 28.0 °F 65% 29.63 in 10.0 mi SSE 20.7 mph - N/A   Clear
8:53 PM 39.0 °F 29.3 °F 28.0 °F 65% 29.61 in 10.0 mi SSE 19.6 mph 28.8 mph N/A   Clear
9:53 PM 39.0 °F 29.0 °F 28.0 °F 65% 29.60 in 10.0 mi South 20.7 mph 27.6 mph N/A   Clear
11:53 PM 35.1 °F 27.9 °F 28.9 °F 78% 29.60 in 10.0 mi South 9.2 mph - N/A   Clear